Location: Vancouver
(49.2827°N, 123.1207°W)
Time: 01:16:30
(UTC-07:00)

Envisat - Pass Details

Date: 28 May 2024
Orbit: 762 x 764 km, 98.3° (Epoch: 19 June)

Event Time Altitude Azimuth Distance (km) Brightness Sun altitude
Rises 03:04:18 0° 30° (NNE) 3,238 8.2 -14.7°
Reaches altitude 10° 03:07:52 10° 56° (ENE) 2,305 6.5 -14.4°
Maximum altitude 03:10:22 14° 86° (E) 2,056 5.6 -14.2°
Drops below altitude 10° 03:12:52 10° 116° (ESE) 2,296 5.5 -14.0°
Sets 03:16:24 0° 142° (SE) 3,215 6.0 -13.8°
